[[{"header":{"parameterUnit":"m.s-1","parameterCategory":1,"la1":30.2991,"la2":30.254,"lo1":-89.0895,"lo2":-89.0444,"dy":0.0017,"dx":0.0017,"nx":28,"ny":28,"refTime":"2025-09-11T21:00:00:Z","depth":0,"parameterNumber":2,"parameterNumberName":"U-component_of_WINDS"},"data":[0,0,0,0,0,0,0,0,0,0,0,0,0,0,0,0,0,0,0,0,0,0,0,0,0,0,0,0,0,0,0,0,0,0,0,0,0,0,0,0,0,0,0,0,0,0,0,0,0,0,0,0,0,0,0,0,0,0,-3.6461,-3.6461,0,-3.6447,-3.6447,-3.6447,-3.636,-3.6358,-3.6356,-3.6354,-3.6341,-3.6343,-3.6345,0,0,0,0,0,0,0,0,0,0,0,0,0,-3.6417,-3.6418,-3.6461,-3.6461,-3.6461,-3.6447,-3.6447,-3.6447,-3.636,-3.6358,-3.6355,-3.6353,-3.6341,-3.6343,-3.6345,0,0,0,0,0,0,0,0,0,0,0,0,0,-3.6423,-3.6418,-3.6461,-3.6416,-3.6412,-3.6447,-3.6447,-3.6447,-3.6361,-3.6358,-3.6355,-3.6352,-3.634,-3.6343,-3.6345,-3.6423,0,0,-3.6353,-3.6354,0,0,0,0,0,0,0,0,-3.6423,-3.6424,-3.6423,-3.6419,-3.6414,-3.6402,-3.6427,-3.6439,-3.6362,-3.638,-3.6354,-3.635,-3.6364,-3.6365,-3.6369,-3.6423,-3.6422,-3.6353,-3.6354,-3.6355,-3.6356,0,0,0,0,0,0,0,-3.6422,-3.6425,-3.6456,-3.6423,-3.6418,-3.6398,-3.6395,-3.6429,-3.639,-3.6378,-3.6372,-3.6372,-3.6361,-3.6367,-3.6368,-3.6422,-3.6353,-3.6355,-3.6356,-3.6357,-3.6543,-3.6546,0,0,0,0,0,0,-3.6428,-3.6425,-3.6456,-3.6455,-3.6411,-3.6401,-3.6398,-3.6409,-3.639,-3.6384,-3.6374,-3.6368,-3.6364,-3.6365,-3.6367,-3.6458,-3.6355,-3.6358,-3.6359,-3.6539,-3.6543,-3.6547,0,0,0,0,0,0,-3.6427,-3.6431,-3.6457,-3.6438,-3.644,-3.6405,-3.6419,-3.6411,-3.6416,-3.6386,-3.6379,-3.6387,-3.6362,-3.6364,-3.6411,-3.6457,-3.6359,-3.6361,-3.6535,-3.654,-3.6545,-3.6641,0,0,0,0,0,0,-3.6426,-3.6432,-3.646,-3.644,-3.6441,-3.6499,-3.6421,-3.6413,-3.642,-3.6411,-3.6396,-3.6391,-3.6359,-3.6407,-3.6413,-3.6458,-3.6363,-3.6531,-3.6537,-3.6543,-3.6634,-3.6649,-3.6662,0,0,0,0,0,-3.6425,-3.6487,-3.6461,-3.6466,-3.6476,-3.6502,-3.6503,-3.6465,-3.6424,-3.6453,-3.6435,-3.6391,-3.6452,-3.6413,-3.6418,-3.6465,-3.6527,-3.6535,-3.6543,-3.6627,-3.6646,-3.6662,0,0,0,0,0,0,-3.6513,-3.6483,-3.6455,-3.6512,-3.651,-3.6487,-3.6522,-3.6486,-3.6496,-3.6487,-3.6441,-3.6438,-3.6492,-3.6484,-3.6441,-3.6542,-3.6482,-3.6492,-3.6545,-3.6562,-3.6576,-3.6576,-3.6365,0,0,0,0,0,-3.6539,-3.6562,-3.6535,-3.6589,-3.6589,-3.6557,-3.6566,-3.6538,-3.6534,-3.6533,-3.6518,-3.6517,-3.6536,-3.6549,-3.6564,-3.6633,-3.6629,-3.6669,-3.6683,-3.6695,-3.6703,-3.674,-3.6758,-3.6572,-3.6572,-3.6572,0,0,-3.6593,-3.658,-3.6597,-3.6606,-3.6601,-3.6627,-3.6556,-3.6586,-3.6605,-3.6537,-3.658,-3.657,-3.6566,-3.6625,-3.665,-3.6619,-3.6754,-3.6705,-3.6714,-3.6716,-3.675,-3.6768,-3.6783,-3.6578,-3.6577,-3.6576,0,0,-3.6704,-3.6697,-3.6741,-3.6738,-3.6732,-3.671,-3.6722,-3.6705,-3.6695,-3.6738,-3.6689,-3.6712,-3.6745,-3.6745,-3.6749,-3.6865,-3.6826,-3.6872,-3.6945,-3.6983,-3.6997,-3.701,-3.7052,-3.7067,-3.6881,-3.6881,-3.6881,0,-3.6772,-3.6808,-3.6768,-3.6802,-3.6808,-3.675,-3.6795,-3.6795,-3.6795,-3.6801,-3.6767,-3.6809,-3.6803,-3.6861,-3.689,-3.6895,-3.6907,-3.6872,-3.6998,-3.7011,-3.7022,-3.7061,-3.7077,-3.6886,-3.6886,-3.6885,-3.6885,0,-3.6892,-3.6918,-3.6955,-3.6956,-3.6967,-3.7007,-3.6975,-3.6991,-3.6964,-3.6946,-3.6992,-3.6983,-3.6996,-3.7009,-3.6981,-3.7064,-3.7046,-3.7006,-3.6945,-3.7046,-3.7082,-3.7097,-3.6894,-3.6892,-3.6891,-3.6889,0,0,-3.7053,-3.7036,-3.705,-3.7051,-3.7042,-3.7062,-3.7101,-3.7115,-3.713,-3.7133,-3.7165,-3.7197,-3.7161,-3.7166,-3.7139,-3.7172,-3.7266,-3.7128,-3.7128,-3.7154,-3.7358,-3.7387,-3.7405,-3.7241,-3.7244,-3.7246,-3.7358,0,-3.716,-3.7223,-3.719,-3.7258,-3.7283,-3.7231,-3.7265,-3.7264,-3.725,-3.7271,-3.7256,-3.7279,-3.7229,-3.7232,-3.7263,-3.7248,-3.7306,-3.724,-3.727,-3.7272,-3.7271,-3.7423,-3.7453,-3.7559,-3.7372,-3.7374,-3.7376,0,-3.729,-3.73,-3.7371,-3.736,-3.737,-3.74,-3.7412,-3.7432,-3.7431,-3.7419,-3.7427,-3.7394,-3.7433,-3.7375,-3.7428,-3.7384,-3.7396,-3.7391,-3.7394,-3.7394,-3.7329,-3.7426,-3.7592,-3.7607,-3.7398,-3.7396,-3.7395,0,-3.7401,-3.7432,-3.7479,-3.7482,-3.747,-3.7494,-3.7491,-3.7487,-3.7498,-3.7509,-3.7516,-3.7532,-3.754,-3.7554,-3.7527,-3.7487,-3.7585,-3.7524,-3.7576,-3.7577,-3.7597,-3.7595,-3.7765,-3.7607,-3.7607,-3.7607,-3.7607,0,-3.7522,-3.7567,-3.7529,-3.7557,-3.7607,-3.7571,-3.7622,-3.7614,-3.7612,-3.7639,-3.7596,-3.7623,-3.7585,-3.7609,-3.7588,-3.7637,-3.7641,-3.7633,-3.7626,-3.7636,-3.7637,-3.7641,-3.7632,-3.7611,-3.761,-3.7609,-3.7609,0,-3.7652,-3.7628,-3.7675,-3.7662,-3.7661,-3.7698,-3.7687,-3.7714,-3.7699,-3.7734,-3.7741,-3.7717,-3.7743,-3.7718,-3.7743,-3.7729,-3.7794,-3.7777,-3.7793,-3.7788,-3.7841,-3.7836,-3.8018,-3.804,-3.787,-3.7872,-3.7873,0,-3.7729,-3.7763,-3.7755,-3.777,-3.7769,-3.7794,-3.7806,-3.7774,-3.7788,-3.7793,-3.782,-3.7842,-3.7858,-3.7903,-3.7888,-3.7908,-3.7891,-3.7954,-3.7893,-3.7902,-3.7891,-3.7889,-3.7892,-3.7965,-3.7967,-3.7969,-3.797,0,-3.7869,-3.7857,-3.7875,-3.7891,-3.7907,-3.7917,-3.7925,-3.794,-3.7907,-3.7926,-3.7952,-3.7965,-3.7992,-3.8015,-3.8031,-3.8028,-3.7995,-3.799,-3.8003,-3.8011,-3.8019,-3.8015,-3.7825,-3.7985,-3.7983,-3.7982,-3.7982,-3.7981,-3.7974,-3.8003,-3.8002,-3.8025,-3.8028,-3.8037,-3.8062,-3.8051,-3.8072,-3.8091,-3.8072,-3.8104,-3.8107,-3.8124,-3.8127,-3.8153,-3.8126,-3.8145,-3.815,-3.8154,-3.8162,-3.8017,-3.8156,-3.8155,-3.8155,-3.8155,-3.8154,0,-3.8111,-3.8109,-3.8131,-3.8144,-3.8163,-3.8131,-3.8138,-3.8156,-3.8185,-3.819,-3.8208,-3.824,-3.8264,-3.8253,-3.8274,-3.8297,-3.8282,-3.8304,-3.8301,-3.8301,-3.8184,-3.8171,-3.8316,-3.8316,-3.8315,-3.8315,-3.8315,-3.8315,-3.8184,-3.8231,-3.8219,-3.8268,-3.8266,-3.8297,-3.8305,-3.8314,-3.8318,-3.8355,-3.8375,-3.8368,-3.8368,-3.8389,-3.841,-3.8407,-3.8416,-3.8443,-3.8434,-3.8325,-3.8309,-3.8294,-3.828,-3.8446,-3.8446,-3.8548,-3.8549,-3.855]},{"header":{"parameterUnit":"m.s-1","parameterCategory":1,"la1":30.2991,"la2":30.254,"lo1":-89.0895,"lo2":-89.0444,"dy":0.0017,"dx":0.0017,"nx":28,"ny":28,"refTime":"2025-09-11T21:00:00:Z","depth":0,"parameterNumber":3,"parameterNumberName":"V-component_of_WINDS"},"data":[0,0,0,0,0,0,0,0,0,0,0,0,0,0,0,0,0,0,0,0,0,0,0,0,0,0,0,0,0,0,0,0,0,0,0,0,0,0,0,0,0,0,0,0,0,0,0,0,0,0,0,0,0,0,0,0,0,0,1.5429,1.5429,0,1.5411,1.5411,1.5411,1.5442,1.5443,1.5444,1.5445,1.542,1.5419,1.5417,0,0,0,0,0,0,0,0,0,0,0,0,0,1.5486,1.5485,1.5429,1.5429,1.5429,1.5411,1.5411,1.5411,1.5442,1.5443,1.5444,1.5445,1.5421,1.5419,1.5417,0,0,0,0,0,0,0,0,0,0,0,0,0,1.5464,1.5484,1.5429,1.5442,1.5443,1.5411,1.5411,1.5411,1.5441,1.5443,1.5445,1.5446,1.5421,1.5419,1.5417,1.5369,0,0,1.5409,1.5408,0,0,0,0,0,0,0,0,1.5465,1.5462,1.5441,1.5441,1.5442,1.5431,1.5422,1.5397,1.5441,1.5442,1.5445,1.5447,1.5422,1.542,1.5412,1.5368,1.5367,1.5409,1.5407,1.5406,1.5406,0,0,0,0,0,0,0,1.5467,1.5463,1.5422,1.544,1.5441,1.5448,1.5446,1.5417,1.5423,1.5442,1.5444,1.5442,1.5423,1.5415,1.5412,1.5367,1.5409,1.5407,1.5405,1.5404,1.5284,1.5282,0,0,0,0,0,0,1.5467,1.5464,1.5422,1.5421,1.5458,1.5445,1.5444,1.5433,1.5423,1.5424,1.5441,1.5443,1.5418,1.5415,1.5411,1.5355,1.5406,1.5404,1.5403,1.5285,1.5283,1.5281,0,0,0,0,0,0,1.5468,1.5463,1.5423,1.5443,1.5439,1.5443,1.543,1.5431,1.5424,1.5423,1.5423,1.5432,1.5419,1.5415,1.538,1.5355,1.5403,1.5401,1.5287,1.5285,1.5282,1.5243,0,0,0,0,0,0,1.547,1.5463,1.5446,1.5443,1.5438,1.5393,1.5428,1.543,1.542,1.5423,1.5414,1.5414,1.542,1.5384,1.5378,1.5352,1.5399,1.5289,1.5286,1.5283,1.5246,1.5239,1.5233,0,0,0,0,0,1.5472,1.5434,1.5445,1.544,1.5416,1.5392,1.5389,1.5398,1.5418,1.54,1.54,1.5414,1.5359,1.538,1.5373,1.5347,1.5291,1.5287,1.5283,1.5249,1.5241,1.5233,0,0,0,0,0,0,1.5432,1.5434,1.5446,1.5407,1.5399,1.5397,1.5375,1.5389,1.5373,1.5377,1.5388,1.5386,1.5348,1.5345,1.5367,1.5301,1.5328,1.5323,1.5305,1.5296,1.529,1.529,1.5397,0,0,0,0,0,1.5419,1.5401,1.5403,1.5368,1.5364,1.537,1.536,1.5368,1.536,1.5356,1.5353,1.5343,1.5324,1.531,1.5292,1.5247,1.5245,1.5226,1.5219,1.5214,1.5208,1.5184,1.5175,1.5269,1.5269,1.5269,0,0,1.5391,1.539,1.5377,1.536,1.5355,1.5334,1.5367,1.5343,1.5327,1.5352,1.5319,1.5317,1.5307,1.5267,1.5249,1.5262,1.5183,1.5209,1.5205,1.5202,1.5179,1.517,1.5162,1.5266,1.5266,1.5267,0,0,1.5329,1.5327,1.5298,1.5294,1.5287,1.5292,1.5285,1.5282,1.5282,1.525,1.5268,1.525,1.5216,1.5208,1.5199,1.5138,1.5151,1.5132,1.5096,1.5073,1.5065,1.5059,1.5036,1.5028,1.5127,1.5127,1.5127,0,1.5294,1.5266,1.5281,1.5257,1.5248,1.5273,1.5243,1.5237,1.5224,1.5217,1.5233,1.5192,1.5187,1.5146,1.5131,1.5124,1.5115,1.5131,1.5066,1.5059,1.5053,1.5032,1.5023,1.5124,1.5125,1.5125,1.5125,0,1.5223,1.5203,1.518,1.517,1.5159,1.5132,1.5142,1.5129,1.5139,1.5142,1.511,1.5105,1.5087,1.5078,1.5087,1.5038,1.5047,1.5064,1.5091,1.5042,1.5021,1.5013,1.5121,1.5122,1.5122,1.5123,0,0,1.5132,1.5133,1.5124,1.512,1.5116,1.51,1.5075,1.5059,1.5048,1.5039,1.5017,1.4989,1.5006,1.4996,1.5005,1.4985,1.4936,1.5004,1.5004,1.4991,1.4881,1.4867,1.4857,1.4946,1.4944,1.4943,1.4882,0,1.507,1.5027,1.5041,1.4997,1.4979,1.5004,1.4981,1.4976,1.4979,1.4962,1.4965,1.4945,1.4969,1.4964,1.4945,1.4946,1.4914,1.4951,1.4923,1.4922,1.4923,1.4847,1.4831,1.4773,1.4874,1.4873,1.4872,0,1.4991,1.4981,1.4936,1.4937,1.493,1.491,1.4898,1.4883,1.4877,1.4881,1.4872,1.4885,1.4859,1.4889,1.4852,1.4877,1.4867,1.4866,1.4864,1.486,1.4892,1.4839,1.4755,1.4745,1.486,1.4861,1.4862,0,1.4927,1.4904,1.4874,1.487,1.487,1.4856,1.4855,1.4852,1.4842,1.4831,1.4825,1.4811,1.4802,1.479,1.4799,1.482,1.4761,1.4791,1.4762,1.4761,1.4745,1.4746,1.4657,1.4743,1.4743,1.4743,1.4743,0,1.4855,1.4826,1.4846,1.4827,1.4795,1.4812,1.478,1.4782,1.4779,1.4761,1.4781,1.4763,1.4777,1.476,1.4767,1.4735,1.4732,1.4733,1.4734,1.4729,1.4729,1.4721,1.4724,1.4741,1.4741,1.4742,1.4742,0,1.4777,1.4789,1.4759,1.4763,1.4764,1.474,1.4743,1.4726,1.4732,1.4708,1.4703,1.4712,1.4693,1.4702,1.4681,1.4686,1.4645,1.4653,1.4647,1.4648,1.4618,1.462,1.4519,1.4506,1.4602,1.4601,1.46,0,1.4729,1.4708,1.4711,1.4702,1.47,1.4684,1.4675,1.4692,1.4682,1.4676,1.4658,1.4642,1.4629,1.4598,1.4601,1.4586,1.4592,1.4558,1.459,1.4586,1.459,1.459,1.4588,1.4551,1.455,1.4549,1.4548,0,1.4642,1.465,1.4638,1.4628,1.4618,1.4611,1.4605,1.4595,1.4612,1.4599,1.4582,1.4572,1.4553,1.4536,1.4523,1.4521,1.4536,1.4539,1.4531,1.4524,1.4521,1.4521,1.4628,1.454,1.4541,1.4541,1.4542,1.4542,1.4576,1.4559,1.456,1.4545,1.4544,1.4538,1.4523,1.4528,1.4514,1.4501,1.4512,1.4491,1.4488,1.4473,1.4469,1.4451,1.4465,1.4453,1.445,1.4446,1.4442,1.4527,1.4449,1.445,1.445,1.445,1.445,0,1.4489,1.4492,1.4479,1.4472,1.4461,1.4481,1.4476,1.4464,1.4446,1.4443,1.4431,1.4411,1.4396,1.4399,1.4385,1.4371,1.4377,1.4366,1.4366,1.4365,1.4431,1.4439,1.4361,1.4361,1.4361,1.4361,1.4361,1.4361,1.4442,1.4414,1.4423,1.4394,1.4396,1.4378,1.4373,1.4368,1.4366,1.4343,1.4331,1.4335,1.4334,1.4321,1.4307,1.4309,1.4301,1.4287,1.4291,1.4352,1.436,1.4369,1.4376,1.4286,1.4286,1.4226,1.4225,1.4225]}]]